User: anonymous
Location: NJAA Observatory
(40.6819°N, 74.8979°W)
Time: 05:50:34
(UTC-04:00)
Language:

Cosmos 1461 - Orbit

View from above orbital plane
View from above orbital plane
View from above satellite
View from above satellite

Ground track
Ground track

The orbit data is extracted from the following two-line orbital elements,

1 14064U 83044A   14233.42203850  .00001374  00000-0  15104-3 0  5985
2 14064 065.0032 226.3004 0093443 092.7574 019.2291 14.88826942569564
Epoch (UTC): 21 August 2014 10:07:44
Eccentricity: 0.0093443
inclination: 65.0032°
perigee height: 536 km
apogee height: 667 km
right ascension of ascending node: 226.3004°
argument of perigee: 92.7574°
revolutions per day: 14.88826942
mean anomaly at epoch: 19.2291°
orbit number at epoch: 56956

The dashed part of the orbit path shows where the satellite is in the earth's shadow,  

DLR